星链-38021(STARLINK-38021)

导读

STARLINK-38021(NORAD 69725)是美国SpaceX公司星链(Starlink)低轨互联网星座的组网卫星之一,为星链V2 Mini(Gen2A)系列通信卫星,由猎鹰9号火箭执行发射任务,于2026年6月前后部署入近地轨道。截至2026年7月初,该卫星运行于倾角约53°的近地轨道,近地点高度约220-240公里,轨道周期约89-91分钟,处于发射后轨道爬升与相位调试阶段,后续将升至约550公里的工作轨道,通过激光星间链路为全球尤其是偏远地区提供高速低延迟宽带接入服务,支持手机直连等通信功能。

基本信息
目录编号:
69725
目录名称:
STARLINK-38021
国际标识:
2026-147X
轨道中心:
EARTH
卫星名称:
星链-38021
卫星全名:
星链-38021(STARLINK-38021)
卫星状态:
在轨 (已飞行69 天)
发射日期:
2026-06-28 UTC
国别 :
美国 (US)
星等 :
--
轨道信息
数据来源 国际轨道数据
星历时间: 2026-09-04T21:14:17+0800
18小时前
查看轨道信息
半长轴: 6843.677km
偏心率: 0.0000679
轨道倾角: 97.284°
近地点辐角 97.464°
升交点赤经 284.201°
平近点角 262.668°
近地点: 465.075km
远地点: 466.005km
周期: 93.906分钟
每日圈数: 15.334462
详细信息
固有亮度:
5
最大亮度:
2.5
卫星平台:
Starlink V1.0
覆盖范围:
全球
运营商:
太空探索技术公司
运营商所在国:
美国
制造商(研发单位):
太空探索技术公司
制造商所在国:
美国
使用方式:
暂无
卫星简介
Starlink 计划是 SpaceX 推出的全球卫星互联网项目,通过发射低轨道卫星,为全球尤其是偏远地区提供高速、低延迟的互联网服务。自 2019 年起,Starlink 已部署数千颗卫星,旨在缩小全球数字鸿沟,推动互联网普及。该项目还为军事、航空等行业提供通信支持,带来广泛经济效益。
2D轨道图
3D轨道图
轨道高度分析图
轨道倾角分析图
轨道综合分析图
查看轨道综合分析图
交会数据列表
事件ID 空间交会对象 最接近时刻(TCA) 交会距离 交会风险概率(CRP) 交会风险指数(CRI) 操作
CDM_260903-120006-178106-972522
2026-09-03T
12:00:52+0000
1.525 km
极远距离
6.423405E-6 低风险 0.51
CDM_260906-002606-223206-972522
2026-09-06T
00:26:43+0000
2.570 km
极远距离
1.670732E-6 低风险 0.39
CDM_260906-204806-581306-972521
2026-09-06T
20:48:59+0000
2.655 km
极远距离
1.607851E-6 低风险 0.39